TimeEST,TemperatureF,Dew PointF,Humidity,Sea Level PressureIn,VisibilityMPH,Wind Direction,Wind SpeedMPH,Gust SpeedMPH,PrecipitationIn,Events,Conditions,WindDirDegrees,DateUTC
12:53 AM,1.0,-6.0,72,30.56,10.0,WSW,12.7,-,N/A,,Mostly Cloudy,240,2014-01-24 05:53:00
1:13 AM,1.4,-5.8,72,30.48,10.0,WSW,12.7,-,N/A,,Overcast,240,2014-01-24 06:13:00
1:53 AM,1.9,-4.0,76,30.54,9.0,WSW,11.5,-,N/A,,Overcast,240,2014-01-24 06:53:00
2:53 AM,-2.0,-9.0,72,30.54,10.0,SW,11.5,-,N/A,,Scattered Clouds,230,2014-01-24 07:53:00
3:53 AM,-4.0,-9.9,76,30.53,10.0,SW,11.5,-,N/A,,Clear,220,2014-01-24 08:53:00
4:53 AM,-6.0,-11.9,75,30.52,10.0,SW,11.5,-,N/A,,Clear,220,2014-01-24 09:53:00
5:53 AM,-6.0,-13.0,72,30.49,10.0,SW,11.5,-,N/A,,Clear,220,2014-01-24 10:53:00
6:53 AM,-6.0,-11.9,75,30.47,10.0,SW,11.5,-,N/A,,Clear,220,2014-01-24 11:53:00
7:53 AM,-5.1,-11.0,76,30.42,10.0,SSW,11.5,-,N/A,,Clear,210,2014-01-24 12:53:00
8:53 AM,-2.0,-9.0,72,30.37,10.0,SSW,19.6,-,N/A,,Clear,210,2014-01-24 13:53:00
9:53 AM,-0.0,-7.1,72,30.34,6.0,SSW,18.4,26.5,N/A,,Haze,210,2014-01-24 14:53:00
10:53 AM,3.9,-4.0,70,30.29,4.0,SSW,23.0,28.8,N/A,,Haze,210,2014-01-24 15:53:00
11:05 AM,3.2,-4.0,72,30.22,2.5,SSW,21.9,28.8,N/A,,Haze,210,2014-01-24 16:05:00
11:27 AM,5.0,-2.2,72,30.18,1.5,SSW,26.5,32.2,N/A,,Haze,210,2014-01-24 16:27:00
11:46 AM,6.8,-2.2,67,30.17,2.0,SSW,24.2,32.2,N/A,,Haze,210,2014-01-24 16:46:00
11:53 AM,6.1,-2.9,67,30.22,1.8,SSW,24.2,34.5,N/A,,Haze,210,2014-01-24 16:53:00
12:50 PM,8.6,-0.4,67,30.08,1.5,SSW,24.2,34.5,N/A,,Haze,210,2014-01-24 17:50:00
12:53 PM,9.0,-0.9,64,30.14,1.5,SSW,25.3,34.5,N/A,,Haze,210,2014-01-24 17:53:00
1:09 PM,10.4,-0.4,62,30.04,2.0,SSW,25.3,36.8,N/A,,Haze,200,2014-01-24 18:09:00
1:24 PM,10.4,-0.4,62,30.01,1.5,SSW,26.5,40.3,N/A,,Haze,210,2014-01-24 18:24:00
1:53 PM,10.9,1.0,64,30.01,1.2,SSW,29.9,44.9,N/A,,Haze,200,2014-01-24 18:53:00
2:08 PM,12.2,1.4,62,29.94,2.5,SSW,28.8,39.1,N/A,,Haze,200,2014-01-24 19:08:00
2:23 PM,12.2,1.4,62,29.93,1.8,SSW,28.8,38.0,N/A,,Haze,200,2014-01-24 19:23:00
2:43 PM,14.0,1.4,57,29.91,3.0,SSW,28.8,34.5,N/A,,Haze,210,2014-01-24 19:43:00
2:53 PM,14.0,3.0,62,29.97,2.0,SSW,25.3,40.3,N/A,,Haze,210,2014-01-24 19:53:00
3:08 PM,14.0,3.2,62,29.90,3.0,SSW,26.5,39.1,N/A,,Haze,210,2014-01-24 20:08:00
3:53 PM,15.1,3.9,61,29.92,3.0,SW,28.8,38.0,N/A,,Haze,220,2014-01-24 20:53:00
4:53 PM,17.1,5.0,59,29.89,6.0,SSW,21.9,33.4,N/A,,Haze,210,2014-01-24 21:53:00
5:53 PM,18.0,6.1,60,29.87,10.0,SSW,21.9,28.8,N/A,,Overcast,210,2014-01-24 22:53:00
6:53 PM,19.0,6.1,57,29.85,10.0,SW,20.7,26.5,N/A,,Overcast,220,2014-01-24 23:53:00
7:50 PM,19.4,8.6,63,29.77,2.5,SW,26.5,34.5,0.00,Snow,Light Snow,230,2014-01-25 00:50:00
7:53 PM,19.0,9.0,65,29.83,2.5,SW,23.0,34.5,0.00,Snow,Light Snow,220,2014-01-25 00:53:00
8:04 PM,19.4,10.4,68,29.76,1.5,SW,25.3,33.4,0.00,Snow,Light Snow,220,2014-01-25 01:04:00
8:12 PM,19.4,10.4,68,29.76,2.5,SW,24.2,31.1,0.00,Snow,Light Snow,220,2014-01-25 01:12:00
8:21 PM,19.4,10.4,68,29.75,1.8,SW,25.3,35.7,0.00,Snow,Light Snow,220,2014-01-25 01:21:00
8:43 PM,19.4,12.2,74,29.74,0.5,SW,21.9,32.2,0.00,Snow,Snow,220,2014-01-25 01:43:00
8:50 PM,19.4,14.0,80,29.73,0.5,SW,20.7,32.2,0.00,Snow,Snow,220,2014-01-25 01:50:00
8:53 PM,19.0,14.0,81,29.78,0.5,SW,20.7,27.6,0.00,Snow,Snow,230,2014-01-25 01:53:00
9:04 PM,19.4,14.0,80,29.73,0.5,SW,20.7,-,0.00,Snow,Snow,220,2014-01-25 02:04:00
9:53 PM,19.0,15.1,85,29.72,0.5,SW,23.0,31.1,0.00,Fog-Snow,Snow,220,2014-01-25 02:53:00
10:04 PM,19.4,15.8,86,29.66,0.5,SW,23.0,36.8,0.00,Snow,Snow,220,2014-01-25 03:04:00
10:41 PM,19.4,15.8,86,29.62,0.8,SW,24.2,33.4,0.00,Snow,Light Snow,220,2014-01-25 03:41:00
10:43 PM,19.4,15.8,86,29.62,0.5,SW,24.2,33.4,0.00,Fog-Snow,Light Snow,220,2014-01-25 03:43:00
10:53 PM,19.9,16.0,85,29.66,0.8,SW,25.3,33.4,0.00,Snow,Light Snow,220,2014-01-25 03:53:00
11:00 PM,19.4,15.8,86,29.61,0.8,SW,25.3,34.5,0.00,Snow,Light Snow,220,2014-01-25 04:00:00
11:53 PM,21.0,17.1,85,29.61,0.8,SW,23.0,34.5,0.00,Snow,Light Snow,220,2014-01-25 04:53:00